Location: Newark
(43.7333°N, 7.4000°E)
Time: 23:27:47
(UTC+00:00)

Envisat - Pass Details

Date: 20 September 2020
Orbit: 764 x 766 km, 98.1° (Epoch: 29 October)

Event Time Altitude Azimuth Distance (km) Brightness Sun altitude
Rises 17:50:01 0° 204° (SSW) 3,217 6.5 -4.3°
Reaches altitude 10° 17:52:52 10° 220° (SW) 2,296 6.0 -4.8°
Maximum altitude 17:56:37 21° 268° (W) 1,683 6.1 -5.5°
Drops below altitude 10° 18:00:23 10° 316° (NW) 2,309 6.3 -6.1°
Sets 18:03:17 0° 333° (NNW) 3,240 6.8 -6.7°
